Regional Weather Roundup
Issued by NWS Kansas City/Pleasant Hill, MO

Home | Current Version | Previous Version | Graphics & Text | Print | Product List | Glossary Off
Versions: 1 2 3 4 5 6 7 8 9 10 11 12 13 14 15 16 17 18 19 20 21 22 23 24 25 26 27 28 29 30 31 32 33 34 35 36 37 38 39 40 41 42 43 44 45 46 47 48 49 50

000
ASUS43 KEAX 251710
RWREAX

WEATHER ROUNDUP FOR EASTERN KANSAS AND NORTHWEST MISSOURI
NATIONAL WEATHER SERVICE KANSAS CITY/PLEASANT HILL MO
1200 PM CDT SAT APR 25 2015

KSZ040-057-103>105-MOZ028-029-037-043-251800-
...KANSAS CITY METROPOLITAN AREA...

CITY           SKY/WX    TMP DP  RH WIND       PRES   REMARKS
K.C. INTL      LGT RAIN  58  56  93 NW3       29.50R FOG
K.C. DOWNTOWN  LGT RAIN  62  57  83 W5        29.49R
LEES SUMMIT    CLOUDY    63  57  81 W6        29.49R
OLATHE - IXD   LGT RAIN  59  57  93 SW10      29.49S
OLATHE - OJC   LGT RAIN  59  57  93 W9        29.48R FOG
LAWRENCE       LGT RAIN  60  56  86 W12       29.47R

$$

MOZ001>008-011>017-020>025-030>033-038>040-044>046-053-054-251800-
...NORTHERN AND CENTRAL MISSOURI...

CITY           SKY/WX    TMP DP  RH WIND       PRES   REMARKS
ST. JOSEPH     CLOUDY    57  55  93 NE14      29.52R
MOSBY          CLOUDY    61  55  82 N9        29.49R
WARRENSBURG    CLOUDY    64  54  68 W9        29.48R
WHITEMAN AFB   PTSUNNY   67  55  64 W15       29.46R
CLINTON        PTSUNNY   68  55  64 W17G24    29.49R
SEDALIA        MOSUNNY   68  57  68 W15G24    29.47S
WARSAW         NOT AVBL
CHILLICOTHE      N/A     55  53  93 NE10      29.51R
MOBERLY        CLOUDY    57  54  88 E13       29.49R
KIRKSVILLE     RAIN      52  52 100 E12       29.53R FOG

$$

MOZ041-047>049-056>058-063>065-088>090-097-251800-
...EASTERN AND SOUTHERN MISSOURI...

CITY           SKY/WX    TMP DP  RH WIND       PRES   REMARKS
ST. LOUIS INTL CLOUDY    66  57  72 S7        29.51F
SPIRIT OF STL  CLOUDY    65  58  78 VRB5      29.49F
COLUMBIA       LGT RAIN  65  58  78 SW12      29.46F
JEFFERSON CITY LGT RAIN  63  59  87 VRB3      29.47R
MEXICO         CLOUDY   N/A N/A N/A E10       29.48F
HANNIBAL       CLOUDY    54  52  94 E7        29.52F FOG
ROLLA          CLOUDY    70  53  54 SW25      29.46F
LEBANON        MOSUNNY   70  54  56 W20G26    29.52S
OSAGE BEACH    PTSUNNY   72  54  53 SW17G23   29.48S
SPRINGFIELD    PTSUNNY   69  53  56 W17G28    29.54R
BRANSON        MOSUNNY   72  50  46 W16G23    29.58R
NEVADA         MOSUNNY   70  55  60 SW15G23   29.53
JOPLIN         SUNNY     71  54  54 W15G24    29.56F
WEST PLAINS    MOSUNNY   74  51  44 W14G33    29.53F

$$

IAZ060-094-KSZ022-034>040-054-083-096-NEZ052-066-093-251800-
...KANSAS...SOUTHEAST NEBRASKA AND IOWA...

CITY           SKY/WX    TMP DP  RH WIND       PRES   REMARKS
TOPEKA         CLOUDY    62  56  80 NW15G23   29.51R
MANHATTAN      CLOUDY    60  55  83 N12G22    29.58R
EMPORIA        CLOUDY    63  54  72 W21G26    29.56R
CHANUTE        PTSUNNY   72  54  53 W21G33    29.55R
WICHITA        MOSUNNY   72  51  47 NW22      29.61R
OMAHA          CLOUDY    49  46  90 NE12      29.66R
LINCOLN        CLOUDY    50  46  86 N16       29.66R
FALLS CITY     CLOUDY    55  52  89 N14       29.55R
LAMONI         CLOUDY    47  45  93 NE17      29.57R FOG
DES MOINES     CLOUDY    48  44  86 NE14G23   29.63S

$$



USA.gov is the U.S. government's official web portal to all federal, state and local government web resources and services.